Year,Month,Day,Hour,Minute,Value (Times are PST for temperature in C)
2012,07,28,07,12,12.80
2012,07,28,07,13,12.80
2012,07,28,07,14,12.80
2012,07,28,07,15,12.90
2012,07,28,07,16,12.90
2012,07,28,07,17,12.90
2012,07,28,07,18,12.90
2012,07,28,07,19,12.90
2012,07,28,07,20,12.90
2012,07,28,07,21,12.80
2012,07,28,07,22,12.80
2012,07,28,07,23,12.80
2012,07,28,07,24,12.80
2012,07,28,07,25,12.80
2012,07,28,07,26,12.80
2012,07,28,07,27,12.80
2012,07,28,07,28,12.80
2012,07,28,07,29,12.90
2012,07,28,07,30,12.90
2012,07,28,07,31,12.90
2012,07,28,07,32,13.00
2012,07,28,07,33,13.00
2012,07,28,07,34,13.00
2012,07,28,07,35,13.10
2012,07,28,07,36,13.10
2012,07,28,07,37,13.20
2012,07,28,07,38,13.20
2012,07,28,07,39,13.30
2012,07,28,07,40,13.30
2012,07,28,07,41,13.40
2012,07,28,07,42,13.40
2012,07,28,07,43,13.40
2012,07,28,07,44,13.50
2012,07,28,07,45,13.50
2012,07,28,07,46,13.60
2012,07,28,07,47,13.60
2012,07,28,07,48,13.70
2012,07,28,07,49,13.70
2012,07,28,07,50,13.70
2012,07,28,07,51,13.80
2012,07,28,07,52,13.80
2012,07,28,07,53,13.80
2012,07,28,07,54,13.90
2012,07,28,07,55,13.90
2012,07,28,07,56,14.00
2012,07,28,07,57,14.00
2012,07,28,07,58,14.10
2012,07,28,07,59,14.10
2012,07,28,08,00,14.10
2012,07,28,08,01,14.10
2012,07,28,08,02,14.10
2012,07,28,08,03,14.10
2012,07,28,08,04,14.10
2012,07,28,08,05,14.20
2012,07,28,08,06,14.20
2012,07,28,08,07,14.30
2012,07,28,08,08,14.30
2012,07,28,08,09,14.40
2012,07,28,08,10,14.40
2012,07,28,08,11,14.40
2012,07,28,08,12,14.40
2012,07,28,08,13,14.40
2012,07,28,08,14,14.40
2012,07,28,08,15,14.50
2012,07,28,08,16,14.50
2012,07,28,08,17,14.50
2012,07,28,08,18,14.60
2012,07,28,08,19,14.60
2012,07,28,08,20,14.60
2012,07,28,08,21,14.60
2012,07,28,08,22,14.60
2012,07,28,08,23,14.60
2012,07,28,08,24,14.60
2012,07,28,08,25,14.60
2012,07,28,08,26,14.60
2012,07,28,08,27,14.60
2012,07,28,08,28,14.60
2012,07,28,08,29,14.70
2012,07,28,08,30,14.70
2012,07,28,08,31,14.70
2012,07,28,08,32,14.70
2012,07,28,08,33,14.70
2012,07,28,08,34,14.70
2012,07,28,08,35,14.70
2012,07,28,08,36,14.80
2012,07,28,08,37,14.80
2012,07,28,08,38,14.80
2012,07,28,08,39,14.90
2012,07,28,08,40,14.90
2012,07,28,08,41,14.90
2012,07,28,08,42,14.90
2012,07,28,08,43,14.90
2012,07,28,08,44,15.00
2012,07,28,08,45,14.90
2012,07,28,08,46,14.90
2012,07,28,08,47,14.90
2012,07,28,08,48,14.90
2012,07,28,08,49,14.90
2012,07,28,08,50,15.00
2012,07,28,08,51,15.00
2012,07,28,08,52,15.00
2012,07,28,08,53,15.00
2012,07,28,08,54,15.00
2012,07,28,08,55,15.00
2012,07,28,08,56,15.00
2012,07,28,08,57,15.00
2012,07,28,08,58,15.00
2012,07,28,08,59,15.00
2012,07,28,09,00,14.90
2012,07,28,09,01,14.90
2012,07,28,09,02,14.90
2012,07,28,09,03,15.00
2012,07,28,09,04,15.00
2012,07,28,09,05,15.00
2012,07,28,09,06,15.00
2012,07,28,09,07,15.10
2012,07,28,09,08,15.10
2012,07,28,09,09,15.10
2012,07,28,09,10,15.10
2012,07,28,09,11,15.20
2012,07,28,09,12,15.20
2012,07,28,09,13,15.20
2012,07,28,09,14,15.30
2012,07,28,09,15,15.30
2012,07,28,09,16,15.30
2012,07,28,09,17,15.30
2012,07,28,09,18,15.30
2012,07,28,09,19,15.30
2012,07,28,09,20,15.30
2012,07,28,09,21,15.30
2012,07,28,09,22,15.20
2012,07,28,09,23,15.20
2012,07,28,09,24,15.20
2012,07,28,09,25,15.20
2012,07,28,09,26,15.20
2012,07,28,09,27,15.20
2012,07,28,09,28,15.30
2012,07,28,09,29,15.30
2012,07,28,09,30,15.30
2012,07,28,09,31,15.30
2012,07,28,09,32,15.30
2012,07,28,09,33,15.30
2012,07,28,09,34,15.30
2012,07,28,09,35,15.30
2012,07,28,09,36,15.40
2012,07,28,09,37,15.40
2012,07,28,09,38,15.40
2012,07,28,09,39,15.40
2012,07,28,09,40,15.40
2012,07,28,09,41,15.40
2012,07,28,09,42,15.40
2012,07,28,09,43,15.50
2012,07,28,09,44,15.50
2012,07,28,09,45,15.60
2012,07,28,09,46,15.60
2012,07,28,09,47,15.60
2012,07,28,09,48,15.60
2012,07,28,09,49,15.60
2012,07,28,09,50,15.50
2012,07,28,09,51,15.60
2012,07,28,09,52,15.60
2012,07,28,09,53,15.60
2012,07,28,09,54,15.60
2012,07,28,09,55,15.70
2012,07,28,09,56,15.70
2012,07,28,09,57,15.70
2012,07,28,09,58,15.80
2012,07,28,09,59,15.80
2012,07,28,10,00,15.90
2012,07,28,10,01,15.90
2012,07,28,10,02,15.90
2012,07,28,10,03,15.90
2012,07,28,10,04,15.90
2012,07,28,10,05,16.00
2012,07,28,10,06,16.00
2012,07,28,10,07,16.10
2012,07,28,10,08,16.10
2012,07,28,10,09,16.20
2012,07,28,10,10,16.20
2012,07,28,10,11,16.20
2012,07,28,10,12,16.20
2012,07,28,10,13,16.20
2012,07,28,10,14,16.20
2012,07,28,10,15,16.20
2012,07,28,10,16,16.20
2012,07,28,10,17,16.10
2012,07,28,10,18,16.10
2012,07,28,10,19,16.00
2012,07,28,10,20,16.00
2012,07,28,10,21,16.10
2012,07,28,10,22,16.20
2012,07,28,10,23,16.20
2012,07,28,10,24,16.30
2012,07,28,10,25,16.30
2012,07,28,10,26,16.30
2012,07,28,10,27,16.20
2012,07,28,10,28,16.20
2012,07,28,10,29,16.20
2012,07,28,10,30,16.20
2012,07,28,10,31,16.10
2012,07,28,10,32,16.10
2012,07,28,10,33,16.10
2012,07,28,10,34,16.20
2012,07,28,10,35,16.20
2012,07,28,10,36,16.20
2012,07,28,10,37,16.20
2012,07,28,10,38,16.20
2012,07,28,10,39,16.20
2012,07,28,10,40,16.10
2012,07,28,10,41,16.10
2012,07,28,10,42,16.10
2012,07,28,10,43,16.10
2012,07,28,10,44,16.10
2012,07,28,10,45,16.20
2012,07,28,10,46,16.20
2012,07,28,10,47,16.20
2012,07,28,10,48,16.30
2012,07,28,10,49,16.30
2012,07,28,10,50,16.30
2012,07,28,10,51,16.40
2012,07,28,10,52,16.50
2012,07,28,10,53,16.50
2012,07,28,10,54,16.50
2012,07,28,10,55,16.40
2012,07,28,10,56,16.50
2012,07,28,10,57,16.60
2012,07,28,10,58,16.70
2012,07,28,10,59,16.70
2012,07,28,11,00,16.80
2012,07,28,11,01,16.80
2012,07,28,11,02,16.70
2012,07,28,11,03,16.60
2012,07,28,11,04,16.60
2012,07,28,11,05,16.60
2012,07,28,11,06,16.60
2012,07,28,11,07,16.60
2012,07,28,11,08,16.60
2012,07,28,11,09,16.50
2012,07,28,11,10,16.50
2012,07,28,11,11,16.50
2012,07,28,11,12,16.60
2012,07,28,11,13,16.60
2012,07,28,11,14,16.70
2012,07,28,11,15,16.70
2012,07,28,11,16,16.70
2012,07,28,11,17,16.80
2012,07,28,11,18,16.80
2012,07,28,11,19,16.80
2012,07,28,11,20,16.80
2012,07,28,11,21,16.80
2012,07,28,11,22,16.80
2012,07,28,11,23,16.80
2012,07,28,11,24,16.80
2012,07,28,11,25,16.90
2012,07,28,11,26,16.90
2012,07,28,11,27,16.90
2012,07,28,11,28,17.00
2012,07,28,11,29,17.10
2012,07,28,11,30,17.20
2012,07,28,11,31,17.20
2012,07,28,11,32,17.20
2012,07,28,11,33,17.30
2012,07,28,11,34,17.30
2012,07,28,11,35,17.40
2012,07,28,11,36,17.50
2012,07,28,11,37,17.60
2012,07,28,11,38,17.70
2012,07,28,11,39,17.80
2012,07,28,11,40,17.90
2012,07,28,11,41,17.90
2012,07,28,11,42,18.00
2012,07,28,11,43,18.10
2012,07,28,11,44,18.00
2012,07,28,11,45,18.00
2012,07,28,11,46,18.00
2012,07,28,11,47,18.10
2012,07,28,11,48,18.10
2012,07,28,11,49,18.20
2012,07,28,11,50,18.20
2012,07,28,11,51,18.20
2012,07,28,11,52,18.20
2012,07,28,11,53,18.20
2012,07,28,11,54,18.20
2012,07,28,11,55,18.20
2012,07,28,11,56,18.20
2012,07,28,11,57,18.30
2012,07,28,11,58,18.40
2012,07,28,11,59,18.40
2012,07,28,12,00,18.50
2012,07,28,12,01,18.50
2012,07,28,12,02,18.60
2012,07,28,12,03,18.60
2012,07,28,12,04,18.60
2012,07,28,12,05,18.60
2012,07,28,12,06,18.60
2012,07,28,12,07,18.60
2012,07,28,12,08,18.60
2012,07,28,12,09,18.60
2012,07,28,12,10,18.70
2012,07,28,12,11,18.70
2012,07,28,12,12,18.60
2012,07,28,12,13,18.60
2012,07,28,12,14,18.60
2012,07,28,12,15,18.50
2012,07,28,12,16,18.50
2012,07,28,12,17,18.50
2012,07,28,12,18,18.50
2012,07,28,12,19,18.40
2012,07,28,12,20,18.40
2012,07,28,12,21,18.40
2012,07,28,12,22,18.30
2012,07,28,12,23,18.30
2012,07,28,12,24,18.30
2012,07,28,12,25,18.40
2012,07,28,12,26,18.40
2012,07,28,12,27,18.40
2012,07,28,12,28,18.50
2012,07,28,12,29,18.50
2012,07,28,12,30,18.50
2012,07,28,12,31,18.60
2012,07,28,12,32,18.70
2012,07,28,12,33,18.80
2012,07,28,12,34,18.80
2012,07,28,12,35,18.90
2012,07,28,12,36,18.90
2012,07,28,12,37,19.00
2012,07,28,12,38,18.90
2012,07,28,12,39,18.90
2012,07,28,12,40,18.90
2012,07,28,12,41,18.80
2012,07,28,12,42,18.80
2012,07,28,12,43,18.80
2012,07,28,12,44,18.70
2012,07,28,12,45,18.70
2012,07,28,12,46,18.70
2012,07,28,12,47,18.60
2012,07,28,12,48,18.50
2012,07,28,12,49,18.50
2012,07,28,12,50,18.40
2012,07,28,12,51,18.30
2012,07,28,12,52,18.30
2012,07,28,12,53,18.30
2012,07,28,12,54,18.30
2012,07,28,12,55,18.40
2012,07,28,12,56,18.30
2012,07,28,12,57,18.30
2012,07,28,12,58,18.30
2012,07,28,12,59,18.40
2012,07,28,13,00,18.30
2012,07,28,13,01,18.30
2012,07,28,13,02,18.30
2012,07,28,13,03,18.30
2012,07,28,13,04,18.30
2012,07,28,13,05,18.30
2012,07,28,13,06,18.30
2012,07,28,13,07,18.30
2012,07,28,13,08,18.30
2012,07,28,13,09,18.30
2012,07,28,13,10,18.30
2012,07,28,13,11,18.40
2012,07,28,13,12,18.40
2012,07,28,13,13,18.50
2012,07,28,13,14,18.60
2012,07,28,13,15,18.60
2012,07,28,13,16,18.60
2012,07,28,13,17,18.70
2012,07,28,13,18,18.70
2012,07,28,13,19,18.60
2012,07,28,13,20,18.50
2012,07,28,13,21,18.40
2012,07,28,13,22,18.30
2012,07,28,13,23,18.30
2012,07,28,13,24,18.20
2012,07,28,13,25,18.20
2012,07,28,13,26,18.20
2012,07,28,13,27,18.20
2012,07,28,13,28,18.30
2012,07,28,13,29,18.30
2012,07,28,13,30,18.40
2012,07,28,13,31,18.40
2012,07,28,13,32,18.40
2012,07,28,13,33,18.50
2012,07,28,13,34,18.60
2012,07,28,13,35,18.60
2012,07,28,13,36,18.60
2012,07,28,13,37,18.60
2012,07,28,13,38,18.60
2012,07,28,13,39,18.60
2012,07,28,13,40,18.70
2012,07,28,13,41,18.80
2012,07,28,13,42,18.80
2012,07,28,13,43,18.80
2012,07,28,13,44,18.80
2012,07,28,13,45,18.80
2012,07,28,13,46,18.80
2012,07,28,13,47,18.80
2012,07,28,13,48,18.90
2012,07,28,13,49,18.90
2012,07,28,13,50,18.90
2012,07,28,13,51,18.90
2012,07,28,13,52,18.90
2012,07,28,13,53,18.90
2012,07,28,13,54,19.00
2012,07,28,13,55,19.00
2012,07,28,13,56,19.10
2012,07,28,13,57,19.10
2012,07,28,13,58,19.20
2012,07,28,13,59,19.10
2012,07,28,14,00,19.10
2012,07,28,14,01,19.10
2012,07,28,14,02,19.10
2012,07,28,14,03,19.10
2012,07,28,14,04,19.10
2012,07,28,14,05,19.10
2012,07,28,14,06,19.10
2012,07,28,14,07,19.10
2012,07,28,14,08,19.10
2012,07,28,14,09,19.00
2012,07,28,14,10,19.00
2012,07,28,14,11,19.10
2012,07,28,14,12,19.10
2012,07,28,14,13,19.10
2012,07,28,14,14,19.20
2012,07,28,14,15,19.20
2012,07,28,14,16,19.20
2012,07,28,14,17,19.20
2012,07,28,14,18,19.20
2012,07,28,14,19,19.20
2012,07,28,14,20,19.20
2012,07,28,14,21,19.20
2012,07,28,14,22,19.20
2012,07,28,14,23,19.30
2012,07,28,14,24,19.30
2012,07,28,14,25,19.30
2012,07,28,14,26,19.30
2012,07,28,14,27,19.30
2012,07,28,14,28,19.30
2012,07,28,14,29,19.30
2012,07,28,14,30,19.30
2012,07,28,14,31,19.30
2012,07,28,14,32,19.30
2012,07,28,14,33,19.30
2012,07,28,14,34,19.30
2012,07,28,14,35,19.30
2012,07,28,14,36,19.30
2012,07,28,14,37,19.30
2012,07,28,14,38,19.30
2012,07,28,14,39,19.20
2012,07,28,14,40,19.20
2012,07,28,14,41,19.20
2012,07,28,14,42,19.20
2012,07,28,14,43,19.20
2012,07,28,14,44,19.20
2012,07,28,14,45,19.20
2012,07,28,14,46,19.20
2012,07,28,14,47,19.20
2012,07,28,14,48,19.20
2012,07,28,14,49,19.20
2012,07,28,14,50,19.20
2012,07,28,14,51,19.20
2012,07,28,14,52,19.30
2012,07,28,14,53,19.30
2012,07,28,14,54,19.30
2012,07,28,14,55,19.30
2012,07,28,14,56,19.30
2012,07,28,14,57,19.30
2012,07,28,14,58,19.30
2012,07,28,14,59,19.30
2012,07,28,15,00,19.30
2012,07,28,15,01,19.30
2012,07,28,15,02,19.20
2012,07,28,15,03,19.20
2012,07,28,15,04,19.20
2012,07,28,15,05,19.30
2012,07,28,15,06,19.30
2012,07,28,15,07,19.30
2012,07,28,15,08,19.30
2012,07,28,15,09,19.30
2012,07,28,15,10,19.30
2012,07,28,15,11,19.30
2012,07,28,15,12,19.30
2012,07,28,15,13,19.30
2012,07,28,15,14,19.30
2012,07,28,15,15,19.30
2012,07,28,15,16,19.40
2012,07,28,15,17,19.40
2012,07,28,15,18,19.40
2012,07,28,15,19,19.40
2012,07,28,15,20,19.40
2012,07,28,15,21,19.50
2012,07,28,15,22,19.50
2012,07,28,15,23,19.40
2012,07,28,15,24,19.30
2012,07,28,15,25,19.30
2012,07,28,15,26,19.30
2012,07,28,15,27,19.30
2012,07,28,15,28,19.20
2012,07,28,15,29,19.20
2012,07,28,15,30,19.20
2012,07,28,15,31,19.20
2012,07,28,15,32,19.20
2012,07,28,15,33,19.20
2012,07,28,15,34,19.20
2012,07,28,15,35,19.20
2012,07,28,15,36,19.30
2012,07,28,15,37,19.20
2012,07,28,15,38,19.20
2012,07,28,15,39,19.20
2012,07,28,15,40,19.10
2012,07,28,15,41,19.10
2012,07,28,15,42,19.10
2012,07,28,15,43,19.10
2012,07,28,15,44,19.10
2012,07,28,15,45,19.10
2012,07,28,15,46,19.10
2012,07,28,15,47,19.10
2012,07,28,15,48,19.10
2012,07,28,15,49,19.10
2012,07,28,15,50,19.10
2012,07,28,15,51,19.10
2012,07,28,15,52,19.20
2012,07,28,15,53,19.20
2012,07,28,15,54,19.20
2012,07,28,15,55,19.20
2012,07,28,15,56,19.10
2012,07,28,15,57,19.10
2012,07,28,15,58,19.20
2012,07,28,15,59,19.20
2012,07,28,16,00,19.20
2012,07,28,16,01,19.20
2012,07,28,16,02,19.20
2012,07,28,16,03,19.20
2012,07,28,16,04,19.30
2012,07,28,16,05,19.30
2012,07,28,16,06,19.30
2012,07,28,16,07,19.30
2012,07,28,16,08,19.30
2012,07,28,16,09,19.30
2012,07,28,16,10,19.30
2012,07,28,16,11,19.30
2012,07,28,16,12,19.30
2012,07,28,16,13,19.30
2012,07,28,16,14,19.30
2012,07,28,16,15,19.30
2012,07,28,16,16,19.30
2012,07,28,16,17,19.30
2012,07,28,16,18,19.30
2012,07,28,16,19,19.30
2012,07,28,16,20,19.30
2012,07,28,16,21,19.40
2012,07,28,16,22,19.40
2012,07,28,16,23,19.40
2012,07,28,16,24,19.40
2012,07,28,16,25,19.40
2012,07,28,16,26,19.40
2012,07,28,16,27,19.40
2012,07,28,16,28,19.40
2012,07,28,16,29,19.40
2012,07,28,16,30,19.50
2012,07,28,16,31,19.60
2012,07,28,16,32,19.60
2012,07,28,16,33,19.70
2012,07,28,16,34,19.80
2012,07,28,16,35,19.80
2012,07,28,16,36,19.80
2012,07,28,16,37,19.80
2012,07,28,16,38,19.80
2012,07,28,16,39,19.80
2012,07,28,16,40,19.80
2012,07,28,16,41,19.80
2012,07,28,16,42,19.90
2012,07,28,16,43,19.90
2012,07,28,16,44,19.90
2012,07,28,16,45,19.90
2012,07,28,16,46,19.90
2012,07,28,16,47,19.90
2012,07,28,16,48,19.90
2012,07,28,16,49,19.90
2012,07,28,16,50,19.90
2012,07,28,16,51,19.90
2012,07,28,16,52,19.90
2012,07,28,16,53,19.90
2012,07,28,16,54,19.90
2012,07,28,16,55,19.90
2012,07,28,16,56,19.90
2012,07,28,16,57,19.90
2012,07,28,16,58,19.90
2012,07,28,16,59,19.90
2012,07,28,17,00,20.00
2012,07,28,17,01,20.00
2012,07,28,17,02,20.00
2012,07,28,17,03,20.00
2012,07,28,17,04,20.00
2012,07,28,17,05,20.10
2012,07,28,17,06,20.10
2012,07,28,17,07,20.10
2012,07,28,17,08,20.10
2012,07,28,17,09,20.10
2012,07,28,17,10,20.10
2012,07,28,17,11,20.10
2012,07,28,17,12,20.10
2012,07,28,17,13,20.10
2012,07,28,17,14,20.10
2012,07,28,17,15,20.20
2012,07,28,17,16,20.20
2012,07,28,17,17,20.20
2012,07,28,17,18,20.20
2012,07,28,17,19,20.20
2012,07,28,17,20,20.20
2012,07,28,17,21,20.30
2012,07,28,17,22,20.30
2012,07,28,17,23,20.40
2012,07,28,17,24,20.40
2012,07,28,17,25,20.40
2012,07,28,17,26,20.40
2012,07,28,17,27,20.40
2012,07,28,17,28,20.40
2012,07,28,17,29,20.30
2012,07,28,17,30,20.30
2012,07,28,17,31,20.30
2012,07,28,17,32,20.30
2012,07,28,17,33,20.20
2012,07,28,17,34,20.20
2012,07,28,17,35,20.20
2012,07,28,17,36,20.20
2012,07,28,17,37,20.20
2012,07,28,17,38,20.20
2012,07,28,17,39,20.20
2012,07,28,17,40,20.30
2012,07,28,17,41,20.30
2012,07,28,17,42,20.30
2012,07,28,17,43,20.30
2012,07,28,17,44,20.30
2012,07,28,17,45,20.30
2012,07,28,17,46,20.20
2012,07,28,17,47,20.20
2012,07,28,17,48,20.20
2012,07,28,17,49,20.20
2012,07,28,17,50,20.20
2012,07,28,17,51,20.30
2012,07,28,17,52,20.20
2012,07,28,17,53,20.20
2012,07,28,17,54,20.20
2012,07,28,17,55,20.20
2012,07,28,17,56,20.20
2012,07,28,17,57,20.20
2012,07,28,17,58,20.20
2012,07,28,17,59,20.20
2012,07,28,18,00,20.20
2012,07,28,18,01,20.20
2012,07,28,18,02,20.20
2012,07,28,18,03,20.20
2012,07,28,18,04,20.20
2012,07,28,18,05,20.20
2012,07,28,18,06,20.20
2012,07,28,18,07,20.30
2012,07,28,18,08,20.20
2012,07,28,18,09,20.30
2012,07,28,18,10,20.30
2012,07,28,18,11,20.20
2012,07,28,18,12,20.20
2012,07,28,18,13,20.20
2012,07,28,18,14,20.20
2012,07,28,18,15,20.20
2012,07,28,18,16,20.20
2012,07,28,18,17,20.10
2012,07,28,18,18,20.10
2012,07,28,18,19,20.20
2012,07,28,18,20,20.20
2012,07,28,18,21,20.20
2012,07,28,18,22,20.20
2012,07,28,18,23,20.20
2012,07,28,18,24,20.20
2012,07,28,18,25,20.10
2012,07,28,18,26,20.10
2012,07,28,18,27,20.10
2012,07,28,18,28,20.10
2012,07,28,18,29,20.10
2012,07,28,18,30,20.20
2012,07,28,18,31,20.20
2012,07,28,18,32,20.20
2012,07,28,18,33,20.20
2012,07,28,18,34,20.20
2012,07,28,18,35,20.20
2012,07,28,18,36,20.20
2012,07,28,18,37,20.20
2012,07,28,18,38,20.20
2012,07,28,18,39,20.20
2012,07,28,18,40,20.30
2012,07,28,18,41,20.20
2012,07,28,18,42,20.20
2012,07,28,18,43,20.20
2012,07,28,18,44,20.30
2012,07,28,18,45,20.30
2012,07,28,18,46,20.30
2012,07,28,18,47,20.30
2012,07,28,18,48,20.20
2012,07,28,18,49,20.20
2012,07,28,18,50,20.20
2012,07,28,18,51,20.20
2012,07,28,18,52,20.20
2012,07,28,18,53,20.20
2012,07,28,18,54,20.20
2012,07,28,18,55,20.20
2012,07,28,18,56,20.20
2012,07,28,18,57,20.20
2012,07,28,18,58,20.20
2012,07,28,18,59,20.20
2012,07,28,19,00,20.20
2012,07,28,19,01,20.10
2012,07,28,19,02,20.10
2012,07,28,19,03,20.10
2012,07,28,19,04,20.10
2012,07,28,19,05,20.10
2012,07,28,19,06,20.10
2012,07,28,19,07,20.00
2012,07,28,19,08,20.00
2012,07,28,19,09,20.00
2012,07,28,19,10,20.00
2012,07,28,19,11,20.00
2012,07,28,19,12,20.00
2012,07,28,19,13,19.90
2012,07,28,19,14,19.90
2012,07,28,19,15,19.90
2012,07,28,19,16,19.90
2012,07,28,19,17,19.90
2012,07,28,19,18,19.90
2012,07,28,19,19,19.90
2012,07,28,19,20,19.90
2012,07,28,19,21,19.90
2012,07,28,19,22,19.90
2012,07,28,19,23,19.90
2012,07,28,19,24,19.90
2012,07,28,19,25,19.90
2012,07,28,19,26,19.90
2012,07,28,19,27,19.90
2012,07,28,19,28,20.00
2012,07,28,19,29,20.00
2012,07,28,19,30,20.00
2012,07,28,19,31,20.10
2012,07,28,19,32,20.10
2012,07,28,19,33,20.10
2012,07,28,19,34,20.20
2012,07,28,19,35,20.20
2012,07,28,19,36,20.20
2012,07,28,19,37,20.20
2012,07,28,19,38,20.20
2012,07,28,19,39,20.20
2012,07,28,19,40,20.20
2012,07,28,19,41,20.30
2012,07,28,19,42,20.30
2012,07,28,19,43,20.30
2012,07,28,19,44,20.30
2012,07,28,19,45,20.30
2012,07,28,19,46,20.30
2012,07,28,19,47,20.30
2012,07,28,19,48,20.30
2012,07,28,19,49,20.30
2012,07,28,19,50,20.30
2012,07,28,19,51,20.30
2012,07,28,19,52,20.30
2012,07,28,19,53,20.30
2012,07,28,19,54,20.20
2012,07,28,19,55,20.20
2012,07,28,19,56,20.20
2012,07,28,19,57,20.20
2012,07,28,19,58,20.20
2012,07,28,19,59,20.10
2012,07,28,20,00,20.10
2012,07,28,20,01,20.10
2012,07,28,20,02,20.10
2012,07,28,20,03,20.10
2012,07,28,20,04,20.10
2012,07,28,20,05,20.10
2012,07,28,20,06,20.00
2012,07,28,20,07,20.00
2012,07,28,20,08,20.00
2012,07,28,20,09,19.90
2012,07,28,20,10,19.90
2012,07,28,20,11,19.90
2012,07,28,20,12,19.90
2012,07,28,20,13,19.80
2012,07,28,20,14,19.80
2012,07,28,20,15,19.80
2012,07,28,20,16,19.80
2012,07,28,20,17,19.80
2012,07,28,20,18,19.70
2012,07,28,20,19,19.70
2012,07,28,20,20,19.70
2012,07,28,20,21,19.70
2012,07,28,20,22,19.70
2012,07,28,20,23,19.70
2012,07,28,20,24,19.70
2012,07,28,20,25,19.60
2012,07,28,20,26,19.60
2012,07,28,20,27,19.60
2012,07,28,20,28,19.60
2012,07,28,20,29,19.60
2012,07,28,20,30,19.50
2012,07,28,20,31,19.50
2012,07,28,20,32,19.50
2012,07,28,20,33,19.50
2012,07,28,20,34,19.40
2012,07,28,20,35,19.40
2012,07,28,20,36,19.40
2012,07,28,20,37,19.40
2012,07,28,20,38,19.40
2012,07,28,20,39,19.40
2012,07,28,20,40,19.30
2012,07,28,20,41,19.30
2012,07,28,20,42,19.30
2012,07,28,20,43,19.30
2012,07,28,20,44,19.30
2012,07,28,20,45,19.30
2012,07,28,20,46,19.30
2012,07,28,20,47,19.20
2012,07,28,20,48,19.20
2012,07,28,20,49,19.20
2012,07,28,20,50,19.20
2012,07,28,20,51,19.20
2012,07,28,20,52,19.20
2012,07,28,20,53,19.10
2012,07,28,20,54,19.10
2012,07,28,20,55,19.10
2012,07,28,20,56,19.00
2012,07,28,20,57,19.00
2012,07,28,20,58,19.00
2012,07,28,20,59,18.90
2012,07,28,21,00,18.90
2012,07,28,21,01,18.90
2012,07,28,21,02,18.90
2012,07,28,21,03,18.90
2012,07,28,21,04,18.90
2012,07,28,21,05,18.80
2012,07,28,21,06,18.80
2012,07,28,21,07,18.80
2012,07,28,21,08,18.80
2012,07,28,21,09,18.80
2012,07,28,21,10,18.80
2012,07,28,21,11,18.80
2012,07,28,21,12,18.80
2012,07,28,21,13,18.80
2012,07,28,21,14,18.80
2012,07,28,21,15,18.80
2012,07,28,21,16,18.80
2012,07,28,21,17,18.70
2012,07,28,21,18,18.70
2012,07,28,21,19,18.70
2012,07,28,21,20,18.70
2012,07,28,21,21,18.70
2012,07,28,21,22,18.70
2012,07,28,21,23,18.70
2012,07,28,21,24,18.70
2012,07,28,21,25,18.70
2012,07,28,21,26,18.60
2012,07,28,21,27,18.60
2012,07,28,21,28,18.60
2012,07,28,21,29,18.60
2012,07,28,21,30,18.60
2012,07,28,21,31,18.60
2012,07,28,21,32,18.60
2012,07,28,21,33,18.50
2012,07,28,21,34,18.50
2012,07,28,21,35,18.50
2012,07,28,21,36,18.50
2012,07,28,21,37,18.50
2012,07,28,21,38,18.50
2012,07,28,21,39,18.40
2012,07,28,21,40,18.40
2012,07,28,21,41,18.40
2012,07,28,21,42,18.40
2012,07,28,21,43,18.40
2012,07,28,21,44,18.30
2012,07,28,21,45,18.30
2012,07,28,21,46,18.30
2012,07,28,21,47,18.30
2012,07,28,21,48,18.30
2012,07,28,21,49,18.30
2012,07,28,21,50,18.30
2012,07,28,21,51,18.20
2012,07,28,21,52,18.20
2012,07,28,21,53,18.20
2012,07,28,21,54,18.20
2012,07,28,21,55,18.10
2012,07,28,21,56,18.10
2012,07,28,21,57,18.10
2012,07,28,21,58,18.10
2012,07,28,21,59,18.10
2012,07,28,22,00,18.00
2012,07,28,22,01,18.00
2012,07,28,22,02,18.00
2012,07,28,22,03,18.00
2012,07,28,22,04,17.90
2012,07,28,22,05,17.90
2012,07,28,22,06,17.90
2012,07,28,22,07,17.90
2012,07,28,22,08,17.90
2012,07,28,22,09,17.90
2012,07,28,22,10,17.80
2012,07,28,22,11,17.80
2012,07,28,22,12,17.80
2012,07,28,22,13,17.80
2012,07,28,22,14,17.80
2012,07,28,22,15,17.80
2012,07,28,22,16,17.70
2012,07,28,22,17,17.70
2012,07,28,22,18,17.70
2012,07,28,22,19,17.70
2012,07,28,22,20,17.70
2012,07,28,22,21,17.70
2012,07,28,22,22,17.70
2012,07,28,22,23,17.60
2012,07,28,22,24,17.60
2012,07,28,22,25,17.60
2012,07,28,22,26,17.60
2012,07,28,22,27,17.60
2012,07,28,22,28,17.60
2012,07,28,22,29,17.60
2012,07,28,22,30,17.60
2012,07,28,22,31,17.50
2012,07,28,22,32,17.50
2012,07,28,22,33,17.50
2012,07,28,22,34,17.40
2012,07,28,22,35,17.40
2012,07,28,22,36,17.40
2012,07,28,22,37,17.30
2012,07,28,22,38,17.30
2012,07,28,22,39,17.30
2012,07,28,22,40,17.30
2012,07,28,22,41,17.30
2012,07,28,22,42,17.20
2012,07,28,22,43,17.20
2012,07,28,22,44,17.20
2012,07,28,22,45,17.20
2012,07,28,22,46,17.10
2012,07,28,22,47,17.10
2012,07,28,22,48,17.10
2012,07,28,22,49,17.10
2012,07,28,22,50,17.00
2012,07,28,22,51,17.00
2012,07,28,22,52,17.00
2012,07,28,22,53,17.00
2012,07,28,22,54,16.90
2012,07,28,22,55,16.90
2012,07,28,22,56,16.90
2012,07,28,22,57,16.90
2012,07,28,22,58,16.80
2012,07,28,22,59,16.80
2012,07,28,23,00,16.80
2012,07,28,23,01,16.80
2012,07,28,23,02,16.80
2012,07,28,23,03,16.80
2012,07,28,23,04,16.80
2012,07,28,23,05,16.80
2012,07,28,23,06,16.80
2012,07,28,23,07,16.70
2012,07,28,23,08,16.70
2012,07,28,23,09,16.70
2012,07,28,23,10,16.70
2012,07,28,23,11,16.70
2012,07,28,23,12,16.70
2012,07,28,23,13,16.70
2012,07,28,23,14,16.60
2012,07,28,23,15,16.60
2012,07,28,23,16,16.60
2012,07,28,23,17,16.50
2012,07,28,23,18,16.50
2012,07,28,23,19,16.40
2012,07,28,23,20,16.30
2012,07,28,23,21,16.30
2012,07,28,23,22,16.30
2012,07,28,23,23,16.30
2012,07,28,23,24,16.30
2012,07,28,23,25,16.30
2012,07,28,23,26,16.30
2012,07,28,23,27,16.30
2012,07,28,23,28,16.30
2012,07,28,23,29,16.30
2012,07,28,23,30,16.30
